Retour au catalogue

CZ-6A DEB

ActifPO
NORAD 60718·DEBRIS·🇨🇳 China

Lancé Aug 6, 2024 depuis Taiyuan Satellite Launch Center

Loading…

Prochains Passages (prochaines 24 heures)

TLE

FraisSource: Space-Track

Époque: Sep 14, 2026, 18:41 UTC

1 60718U 24140DX  26257.77860058  .00000120  00000-0  62892-4 0  9990
2 60718  89.1626 281.2786 0104408 290.6393  68.3617 14.06028101107225

Suivez CZ-6A DEB en temps réel avec AllMySat

Download on the App Store